COSMOS 249 DEB

Satellite information

Favourite Embed

Satellite Type and Status

DEBRISIN ORBIT

Key statistics

Satellite COSMOS 249 DEB at a glance.

Uptime

20655

Days in orbit

Revolutions

≈ 14.5

Per day

Orbit

LEO

Low Earth Orbit

Inclination

62.3

Latest

Satellite identification and parameters

Extended collection of information and parameters for COSMOS 249 DEB.

Object identification

Identified? True

Debris? True

Object name: COSMOS 249 DEB

International designator: 1968-091S

Object number (NORAD): 3584

Object ID (CCSDS): 3584

Country: COMMONWEALTH OF INDEPENDENT STATES (CIS)

Current information (Y/N): Y

RCS size: SMALL

Orbital parameters

Period: 99.115 minutes

Inclination: 62.2934 deg

SMA: 7094.489 km

Apoapsis: 967.088 km

Periapsis: 465.621 km

RAAN: 204.3935 deg

Eccentricy: 0.035342

Argument of periapsis: 107.6306 deg

Mean anomaly: 256.3684 deg

Mean motion: 14.5285089 rev/day

Mean motion (dot): 0.00015014 rev/day2

B* drag term: 0.0015922 1/REarth

Two-line elements (TLE)

Creation date: May 8, 2025, 3:01 a.m.

Reference frame: TEME

Reference center: EARTH

Epoch: May 7, 2025, 9:42 a.m. UTC

TLE line 0: 0 COSMOS 249 DEB

TLE line 1: 1 03584U 68091S 25127.40482384 .00015014 00000-0 15922-2 0 9996

TLE line 2: 2 03584 62.2934 204.3935 0353420 107.6306 256.3684 14.52850890803685

Live tracking on map

Real-time ground track for satellite COSMOS 249 DEB.

In-orbit conjunctions

A list of the most updated potential collisions computed for object COSMOS 249 DEB.

Target Orbit TCA Probability of collision Miss distance Type
TSIKADA LEO 2025-04-25 21:23:29 0.0002066644 733.0 (m) PAYLOAD

Associated space launch

The I2P satellites were the first soviet coorbital ASAT system.

COSMOS 249 DEB was lifted into orbit during the mission ‘Tsiklon-2A | I2P 1’, on board a Tsiklon-2A space rocket.

The launch took place on Oct. 20, 1968, 4:02 a.m. from 90/20.

For more information about the launch, click the button.

Launch to space Tsiklon-2A | I2P 1
Tsiklon-2A | I2P 1

Agency: N/A

Status: Launch Successful

Launch date: Oct. 20, 1968, 4:02 a.m. UTC

Rocket: Tsiklon-2A

Launch pad: 90/20

Location: Baikonur Cosmodrome, Republic of Kazakhstan

...

Latest news about this satellite

There are no fresh news available about this satellite. Check back as we update our databases every day.


Newsletter sign-up

Weekly statistics, charts and insights to help you stay on top of the space industry.